Wind_Speed
26 26 27 26 25 25 26 25 25 24 23 22 22 19 18 17 16 16 15 14 14 15 16 15 15 15 13 13 13 13 13 14 14 15 14 15 15 16 16 16 16 17 18 18
28 28 28 27 26 27 27 25 25 24 24 23 23 21 20 19 20 20 19 18 18 18 16 16 16 15 14 14 15 15 15 15 17 17 17 16 16 18 18 17 18 19 18 18
31 30 29 29 28 28 27 27 26 25 25 25 25 23 22 21 22 22 23 23 21 19 19 18 18 17 17 17 16 17 16 16 17 18 19 18 19 19 19 18 18 19 19 20
34 33 34 30 29 29 29 28 27 27 27 26 26 26 25 25 24 24 24 24 22 21 21 20 19 19 19 18 17 17 17 17 18 19 20 21 20 20 21 21 21 21 22 22
35 35 34 32 31 31 31 30 30 30 29 29 28 28 27 26 26 25 25 24 23 23 22 21 20 20 19 19 18 19 19 19 20 21 22 22 22 22 23 22 22 22 23 23
36 36 35 33 31 32 32 33 32 32 30 30 30 30 29 28 27 26 25 25 24 24 23 21 20 20 20 20 20 21 21 22 22 23 23 23 23 24 24 24 24 25 25 24
37 37 37 35 33 32 33 33 31 32 31 31 31 30 30 29 27 26 26 26 25 25 23 22 21 22 22 22 22 23 23 24 24 24 24 24 24 25 25 25 25 25 25 25
36 38 37 35 35 33 33 32 33 32 32 31 31 30 30 29 28 27 26 26 26 26 25 24 24 24 25 25 24 25 24 25 25 25 25 25 25 25 25 26 26 26 26 26
38 38 36 36 36 35 34 33 32 33 33 31 30 29 29 29 28 27 27 27 27 27 26 25 25 26 27 27 26 26 26 26 26 26 27 27 26 26 26 26 26 27 27 27
36 36 34 34 34 35 35 33 31 30 29 30 30 28 27 28 28 28 28 29 29 29 28 27 26 26 27 28 27 27 27 27 27 27 27 28 28 28 28 28 28 28 28 29
35 34 33 33 33 33 33 33 32 30 29 28 27 27 27 28 29 30 30 30 30 30 29 29 29 29 29 29 29 29 29 28 29 28 28 28 29 30 30 29 29 29 30 29
34 34 33 33 33 32 32 32 32 30 29 28 27 27 28 28 29 30 30 30 31 30 30 29 29 30 30 30 30 30 29 29 29 29 29 29 30 30 30 30 31 31 31 31
34 35 34 34 34 34 33 33 32 30 29 28 27 28 28 29 30 30 30 30 31 31 31 30 29 30 30 30 30 30 30 29 29 30 30 30 30 31 31 32 33 32 32 31
34 34 34 34 33 32 32 32 32 31 31 31 30 30 30 29 30 30 30 30 30 30 30 29 29 29 29 30 30 30 30 30 30 30 31 31 31 32 32 33 33 32 32 32
34 34 35 34 32 31 31 31 30 30 30 31 32 31 30 30 30 30 30 30 30 29 28 28 27 28 28 28 28 29 29 30 30 31 31 31 32 33 33 33 33 33 33 32
33 33 33 33 32 32 32 31 30 31 31 31 31 31 29 28 28 28 27 27 27 27 27 27 27 27 27 27 28 28 30 30 31 31 31 32 33 34 34 35 34 34 33 33
33 32 32 32 32 32 32 32 31 31 31 30 29 29 28 26 26 26 26 26 26 26 26 25 25 26 27 28 28 29 29 29 29 30 31 32 32 33 34 34 34 34 33 33
32 32 31 31 31 30 30 30 29 28 27 27 26 26 26 25 24 25 26 26 25 25 25 25 25 26 26 28 28 29 29 29 29 30 30 30 31 32 32 32 32 32 32 32
30 30 29 29 29 28 27 27 27 26 25 25 25 23 23 24 24 24 25 25 25 25 25 25 25 25 26 26 27 27 28 29 29 29 29 29 30 31 31 31 31 32 32 32
28 28 27 27 26 26 26 26 25 25 24 23 24 23 22 22 23 23 24 24 24 23 23 23 23 24 25 25 25 26 27 27 27 27 28 28 29 29 30 30 30 31 31 32
23 24 23 23 24 24 24 24 23 23 23 23 23 22 22 21 21 21 21 22 22 21 22 22 23 23 23 24 24 25 25 26 26 27 27 28 28 28 29 29 30 30 30 30
20 21 22 22 22 21 21 21 21 22 22 22 22 22 22 21 21 21 21 21 20 20 20 21 21 21 22 23 24 25 25 26 26 26 26 26 27 27 28 29 29 29 29 29
18 18 19 20 20 20 20 19 20 20 20 20 20 21 22 22 21 21 21 20 20 20 20 21 20 21 21 22 23 23 23 23 24 24 25 25 26 27 27 28 28 29 29 30
17 17 17 16 17 17 17 17 18 18 18 18 19 19 20 19 19 19 19 19 18 19 19 19 19 19 20 20 20 20 20 21 22 24 24 24 25 26 27 27 28 29 30 31
17 17 17 16 16 16 17 17 17 17 17 18 17 17 17 17 17 17 17 17 17 18 17 17 17 18 18 18 18 19 20 20 21 22 23 24 25 26 27 27 28 29 31 30
15 15 15 15 15 15 15 15 15 15 15 15 15 15 15 15 15 15 16 16 16 16 16 16 16 17 18 18 18 19 20 20 21 22 23 24 26 26 27 28 29 30 30 30
13 13 13 13 13 13 13 13 14 14 14 14 14 13 13 13 14 14 14 15 15 15 16 16 16 17 17 17 18 19 20 21 22 23 24 25 26 26 26 27 28 29 30 31
Wind_Direction
231 230 233 236 236 237 239 243 248 249 253 257 258 262 263 265 269 272 273 274 281 283 284 279 279 280 282 284 288 292 291 294 301 306 302 299 299 299 297 296 296 299 298 298
236 236 235 236 237 238 240 241 244 247 252 257 258 260 263 268 269 270 274 276 280 281 283 282 281 280 282 285 286 290 292 293 299 304 305 304 302 299 298 298 297 299 297 299
238 237 236 237 235 237 238 242 244 248 250 254 257 261 266 269 271 272 275 276 277 280 282 281 281 279 280 281 285 287 289 290 294 299 300 298 299 297 296 297 298 298 298 299
239 237 237 235 236 238 239 240 245 249 249 253 259 262 266 269 272 273 274 274 276 279 281 281 280 276 276 277 282 282 283 286 290 294 294 296 297 296 293 294 296 297 299 300
240 240 239 237 238 238 238 239 242 246 250 254 258 261 264 268 271 272 271 271 275 277 275 275 275 274 275 274 277 281 281 283 285 289 292 292 293 292 291 292 294 294 295 296
240 240 240 238 238 239 241 243 245 248 251 253 257 261 264 268 269 268 270 273 273 274 271 272 274 275 277 277 277 279 281 282 283 286 288 289 289 289 289 290 291 292 294 296
241 242 241 239 240 242 243 245 247 250 252 253 257 262 264 266 268 268 270 271 273 273 270 269 274 275 277 278 278 278 279 281 281 282 286 286 288 289 287 286 287 289 293 295
243 242 241 241 242 242 244 247 248 249 252 254 257 259 261 265 268 269 269 270 271 273 272 270 271 274 275 276 277 278 278 280 281 284 287 288 287 287 287 285 285 287 291 293
244 244 243 244 244 244 245 249 249 250 251 254 257 259 261 264 264 265 266 270 271 271 270 269 271 273 273 274 276 276 277 279 279 282 285 285 284 285 285 286 287 289 292 294
243 244 244 245 246 247 248 251 253 253 253 252 255 257 259 261 263 265 266 268 269 271 270 269 270 272 273 274 274 274 275 277 279 280 284 284 282 286 288 288 290 292 293 293
241 243 244 245 247 250 254 256 257 253 254 255 257 258 260 261 263 265 266 268 270 271 269 269 270 272 273 273 273 274 275 276 278 280 283 284 285 288 289 289 290 290 291 291
240 243 244 246 247 249 252 254 256 255 254 253 256 258 259 262 264 265 266 267 268 269 269 271 272 272 273 273 273 273 274 277 279 280 282 284 286 286 287 288 288 289 290 291
239 242 245 246 247 248 251 253 254 253 252 253 257 258 260 262 263 265 266 267 267 268 269 270 270 271 272 273 274 276 277 278 279 281 283 284 285 286 286 288 289 288 289 289
239 242 244 247 248 249 251 252 253 253 253 255 257 259 261 263 263 264 265 267 268 269 269 269 269 270 271 273 275 276 277 278 280 282 282 283 285 285 285 288 289 287 287 288
240 242 244 246 248 250 252 253 253 253 256 258 259 262 261 261 263 266 267 267 268 269 269 269 269 270 271 273 275 276 278 279 281 282 282 283 284 285 287 289 289 287 287 287
240 242 244 245 247 251 253 255 256 257 258 260 261 262 263 265 264 264 265 267 268 269 268 268 269 270 271 274 276 277 278 279 280 281 282 284 286 287 288 289 289 290 289 288
242 243 244 245 247 250 252 253 254 257 260 261 263 263 263 262 262 262 264 266 268 270 269 270 270 272 274 275 276 278 279 280 282 283 285 286 287 288 289 289 288 289 289 289
245 245 245 245 247 249 250 251 252 255 257 259 260 261 261 262 262 263 265 266 268 269 270 270 271 273 275 278 277 278 280 281 283 285 286 287 288 290 290 289 289 289 289 289
243 245 245 246 247 248 248 250 252 254 256 258 257 259 259 259 260 263 265 267 268 271 272 273 275 277 280 282 280 280 281 283 283 285 287 288 290 290 289 289 289 289 289 290
243 244 245 245 244 245 246 249 252 253 255 257 257 259 262 260 261 264 266 267 268 271 274 274 275 277 280 282 283 283 282 283 285 287 289 289 290 290 290 290 290 290 291 292
243 242 242 243 243 244 247 248 250 251 253 255 255 257 261 262 263 265 268 270 271 272 274 275 277 278 281 283 284 284 284 285 287 288 289 290 290 292 292 292 293 293 293 293
240 241 242 242 243 245 246 246 248 250 252 253 254 257 260 261 263 265 269 271 273 274 275 277 278 281 283 284 285 286 286 287 289 289 289 290 291 293 294 295 296 295 295 295
238 240 240 241 242 242 242 245 248 249 250 252 254 257 259 260 261 264 267 270 272 274 275 276 279 283 285 286 287 288 289 291 292 292 293 293 294 295 296 297 298 298 297 298
239 240 240 240 240 239 240 245 248 249 249 250 252 255 258 259 262 263 266 269 273 275 277 279 282 285 288 289 290 292 294 295 296 297 297 298 298 298 299 300 300 299 299 299
236 238 236 236 239 242 245 247 245 243 245 248 250 252 255 258 261 263 265 269 275 278 280 282 284 287 289 290 291 293 295 297 299 300 300 300 301 301 301 301 301 301 301 301
227 231 233 235 236 238 239 238 238 242 245 247 248 251 254 257 259 261 265 270 275 279 283 284 287 291 294 292 291 294 296 298 300 301 303 305 305 304 305 305 305 305 306 305
222 226 229 230 230 228 227 230 236 241 244 245 246 248 252 255 258 263 269 271 274 280 285 288 290 291 292 292 293 295 297 299 301 303 306 307 307 307 308 309 311 311 310 309
Height
5862 5864 5866 5868 5870 5872 5873 5874 5876 5877 5878 5880 5881 5882 5882 5882 5883 5883 5883 5883 5884 5884 5885 5885 5884 5884 5883 5883 5882 5881 5881 5880 5879 5878 5875 5874 5872 5871 5869 5868 5867 5865 5864 5862
5855 5858 5860 5862 5864 5866 5867 5868 5869 5871 5873 5874 5875 5876 5877 5877 5877 5877 5878 5878 5879 5879 5879 5879 5880 5880 5879 5879 5878 5877 5876 5876 5875 5873 5871 5869 5868 5866 5865 5863 5862 5860 5858 5857
5848 5851 5853 5855 5858 5859 5861 5862 5863 5865 5868 5869 5870 5870 5871 5872 5872 5872 5872 5873 5873 5873 5873 5873 5874 5875 5875 5874 5874 5873 5872 5871 5870 5869 5867 5865 5863 5862 5860 5858 5857 5855 5853 5851
5840 5844 5846 5851 5851 5853 5854 5856 5857 5859 5861 5863 5864 5865 5865 5865 5866 5866 5867 5867 5867 5867 5867 5867 5867 5868 5869 5868 5868 5867 5867 5866 5865 5864 5862 5860 5858 5856 5855 5854 5851 5849 5848 5845
5832 5835 5838 5842 5844 5846 5848 5850 5851 5853 5855 5857 5857 5858 5858 5859 5860 5860 5860 5861 5861 5861 5860 5861 5861 5861 5862 5862 5862 5862 5862 5861 5860 5858 5856 5855 5853 5851 5849 5848 5846 5844 5841 5839
5824 5826 5829 5835 5837 5839 5842 5843 5845 5846 5848 5850 5850 5852 5853 5853 5853 5853 5853 5854 5854 5854 5854 5854 5855 5855 5856 5856 5856 5855 5855 5854 5853 5852 5850 5849 5847 5845 5843 5841 5839 5837 5835 5832
5816 5818 5821 5826 5829 5832 5835 5836 5838 5840 5841 5843 5843 5845 5845 5845 5845 5845 5846 5846 5847 5847 5847 5847 5848 5849 5849 5849 5849 5848 5848 5847 5846 5845 5843 5842 5840 5838 5836 5834 5832 5830 5828 5825
5807 5810 5815 5818 5820 5824 5826 5828 5830 5831 5833 5835 5835 5835 5836 5837 5837 5838 5838 5839 5839 5839 5840 5840 5841 5841 5841 5841 5841 5840 5840 5839 5838 5837 5836 5834 5833 5831 5829 5827 5825 5823 5820 5818
5800 5803 5806 5809 5812 5815 5817 5819 5821 5823 5825 5826 5827 5828 5828 5829 5828 5829 5830 5831 5831 5831 5832 5833 5833 5833 5833 5833 5833 5833 5832 5832 5831 5830 5828 5826 5825 5824 5821 5819 5817 5815 5813 5810
5791 5794 5798 5801 5804 5806 5808 5809 5812 5815 5816 5817 5819 5819 5820 5820 5820 5820 5822 5822 5823 5823 5824 5825 5825 5825 5825 5825 5825 5825 5824 5824 5823 5822 5820 5818 5816 5815 5813 5811 5809 5807 5805 5803
5783 5787 5790 5793 5795 5798 5800 5801 5803 5805 5807 5808 5809 5811 5811 5812 5812 5813 5813 5814 5814 5814 5815 5816 5816 5816 5816 5817 5817 5816 5816 5815 5815 5814 5812 5811 5809 5807 5805 5802 5800 5798 5796 5794
5776 5780 5782 5785 5788 5790 5792 5793 5795 5797 5799 5800 5800 5801 5802 5803 5803 5804 5804 5804 5805 5805 5806 5806 5806 5807 5807 5807 5807 5807 5807 5807 5806 5805 5804 5802 5800 5798 5796 5794 5792 5789 5787 5785
5768 5771 5774 5777 5780 5782 5784 5785 5787 5789 5790 5791 5792 5792 5793 5794 5794 5794 5795 5796 5796 5796 5796 5797 5797 5798 5798 5798 5798 5798 5798 5797 5797 5796 5794 5793 5791 5789 5787 5785 5782 5780 5777 5775
5760 5763 5766 5768 5771 5773 5775 5776 5778 5779 5781 5782 5783 5784 5784 5784 5784 5785 5786 5787 5787 5787 5787 5787 5788 5789 5789 5789 5789 5789 5788 5788 5787 5786 5785 5783 5782 5780 5778 5775 5772 5769 5767 5765
5751 5754 5757 5759 5761 5763 5766 5767 5769 5771 5772 5774 5775 5776 5776 5776 5776 5777 5777 5778 5778 5779 5779 5779 5779 5779 5779 5780 5780 5779 5779 5778 5777 5776 5775 5773 5772 5770 5767 5765 5762 5759 5757 5754
5741 5744 5747 5750 5752 5755 5757 5758 5760 5762 5764 5765 5766 5767 5768 5768 5768 5768 5769 5770 5770 5770 5771 5771 5771 5771 5771 5771 5771 5770 5769 5768 5767 5766 5765 5763 5762 5759 5757 5754 5752 5749 5747 5744
5732 5735 5738 5741 5743 5746 5747 5750 5752 5753 5754 5755 5757 5758 5759 5760 5760 5761 5761 5762 5762 5763 5763 5762 5762 5762 5763 5762 5762 5761 5760 5759 5757 5756 5755 5753 5751 5749 5746 5744 5741 5739 5736 5734
5724 5727 5729 5732 5734 5736 5739 5741 5743 5745 5746 5747 5748 5750 5751 5752 5753 5754 5754 5755 5755 5755 5755 5755 5755 5754 5754 5754 5753 5752 5751 5750 5748 5746 5745 5743 5741 5738 5736 5733 5731 5729 5726 5723
5715 5718 5721 5723 5726 5728 5730 5732 5735 5737 5739 5740 5741 5742 5743 5745 5746 5747 5747 5747 5747 5747 5747 5747 5747 5746 5746 5745 5744 5743 5742 5741 5739 5737 5735 5733 5731 5729 5726 5724 5722 5719 5716 5713
5707 5710 5712 5715 5717 5720 5722 5725 5727 5730 5731 5732 5733 5734 5736 5737 5739 5739 5739 5739 5740 5740 5740 5740 5739 5738 5738 5737 5736 5735 5734 5732 5731 5729 5727 5724 5722 5720 5717 5715 5712 5709 5706 5704
5700 5702 5705 5707 5710 5713 5715 5718 5720 5722 5724 5725 5726 5728 5729 5730 5731 5732 5732 5732 5733 5733 5732 5732 5731 5731 5730 5729 5728 5727 5725 5724 5722 5720 5718 5716 5713 5711 5708 5706 5703 5700 5697 5694
5694 5696 5699 5701 5703 5706 5708 5711 5713 5715 5717 5718 5720 5721 5723 5723 5724 5725 5726 5726 5725 5725 5725 5724 5724 5723 5722 5721 5720 5718 5717 5715 5714 5712 5709 5707 5705 5702 5700 5697 5694 5691 5688 5685
5689 5691 5693 5695 5697 5699 5702 5704 5707 5709 5711 5712 5713 5715 5716 5717 5718 5718 5719 5719 5719 5718 5718 5717 5717 5716 5715 5713 5712 5710 5709 5707 5705 5703 5701 5699 5696 5694 5691 5688 5685 5682 5679 5675
5685 5686 5688 5689 5691 5693 5696 5699 5701 5703 5705 5707 5707 5708 5709 5710 5711 5712 5712 5713 5712 5712 5711 5710 5710 5709 5708 5706 5705 5703 5702 5700 5698 5696 5693 5691 5688 5686 5683 5680 5677 5673 5670 5666
5680 5682 5683 5685 5687 5689 5691 5693 5695 5698 5700 5701 5702 5703 5703 5704 5705 5706 5706 5707 5706 5705 5705 5704 5703 5702 5701 5700 5698 5697 5695 5694 5692 5689 5687 5684 5681 5678 5675 5671 5668 5664 5661 5657
5676 5678 5680 5681 5683 5686 5687 5689 5691 5693 5694 5695 5696 5697 5698 5699 5700 5701 5701 5701 5700 5699 5699 5699 5698 5696 5694 5692 5692 5691 5689 5688 5685 5683 5680 5677 5673 5670 5667 5663 5659 5655 5651 5647
5673 5675 5677 5679 5681 5682 5684 5686 5688 5689 5690 5691 5692 5693 5694 5695 5695 5696 5695 5695 5695 5694 5693 5693 5692 5691 5689 5687 5686 5685 5684 5681 5678 5676 5673 5669 5666 5662 5659 5655 5651 5647 5643 5639